Ketchikan, AK

2:53 PM AKST on December 09, 2018 (GMT -0900)
Ketchikan International

Weather History for PAKT - October, 2018

Change the Weather History Date:

Tuesday, October 30, 2018

  Actual Average Record
Temperature  
Mean Temperature 46 °F -  
Max Temperature 50 °F 47 °F 59 °F (1958)
Min Temperature 44 °F 36 °F 18 °F (1984)
Degree Days  
Heating Degree Days 19    
Moisture  
Dew Point 45 °F    
Average Humidity 92    
Maximum Humidity 93    
Minimum Humidity 86    
Precipitation  
Precipitation 0.73 in - - ()
Sea Level Pressure  
Sea Level Pressure 29.95 in    
Wind  
Wind Speed 6 mph (SSE)    
Max Wind Speed 9 mph    
Max Gust Speed -    
Visibility 9 miles    
Events Rain    
Averages and records for this station are not official NWS values.
T = Trace of Precipitation, MM = Missing Value Source: NWS Daily Summary

Daily Weather History Graph

Daily Weather History Graph

Search for Another Location

Airport or City:

Astronomy

Oct. 30, 2018 Rise Set
Actual Time 7:47 AM AKDT 5:12 PM AKDT
Civil Twilight 7:09 AM AKDT 5:50 PM AKDT
Nautical Twilight 6:26 AM AKDT 6:33 PM AKDT
Astronomical Twilight 5:43 AM AKDT 7:16 PM AKDT
Moon 10:21 PM AKDT (10/30) 2:16 PM AKDT (10/30)
Length of Visible Light 10h 41m
Length of Day
9h 24m
Waning Gibbous, 60% of the Moon is Illuminated
Oct 30
Waning Gibbous
Oct 31
Last Quarter
Nov 7
New
Nov 15
First Quarter
Nov 22
Full

Hourly Weather History & Observations

Time (AKDT) Temp. Windchill Dew Point Humidity Pressure Visibility Wind Dir Wind Speed Gust Speed Precip Events Conditions
12:36 AM 48.9 °F - 46.9 °F 93% 29.98 in 10.0 mi SSE 6.9 mph - N/A   Scattered Clouds
12:53 AM 48.9 °F - 46.9 °F 93% 29.98 in 9.0 mi ESE 8.1 mph - N/A   Mostly Cloudy
1:38 AM 48.9 °F - 46.9 °F 93% 29.98 in 10.0 mi SSE 6.9 mph - 0.00 in   Overcast
1:53 AM 48.9 °F - 46.9 °F 93% 29.99 in 10.0 mi SE 8.1 mph - 0.00 in   Overcast
2:16 AM 48.9 °F - 46.9 °F 93% 29.99 in 10.0 mi SE 8.1 mph - N/A   Mostly Cloudy
2:53 AM 48.0 °F - 46.0 °F 93% 30.00 in 10.0 mi SE 4.6 mph - N/A   Mostly Cloudy
3:53 AM 48.0 °F - 45.0 °F 89% 30.01 in 10.0 mi South 5.8 mph - 0.01 in   Mostly Cloudy
4:18 AM 46.0 °F 43.9 °F 44.1 °F 93% 30.01 in 10.0 mi SSE 4.6 mph - N/A   Partly Cloudy
4:27 AM 46.0 °F 43.9 °F 44.1 °F 93% 30.00 in 10.0 mi South 4.6 mph - N/A   Scattered Clouds
4:53 AM 44.1 °F 40.8 °F 42.1 °F 93% 30.01 in 10.0 mi South 5.8 mph - N/A   Partly Cloudy
5:53 AM 45.0 °F 41.8 °F 43.0 °F 93% 30.02 in 10.0 mi SSE 5.8 mph - N/A   Mostly Cloudy
6:03 AM 45.0 °F 41.8 °F 43.0 °F 93% 30.01 in 10.0 mi South 5.8 mph - N/A   Overcast
6:53 AM 46.4 °F 43.5 °F 44.6 °F 93% 30.01 in 10.0 mi SE 5.8 mph - N/A   Overcast
7:53 AM 46.4 °F 43.5 °F 44.6 °F 93% 30.02 in 10.0 mi South 5.8 mph - N/A   Overcast
8:53 AM 46.4 °F 42.4 °F 44.6 °F 93% 30.02 in 3.0 mi SE 8.1 mph - N/A Rain Light Rain
9:53 AM 48.2 °F - 44.6 °F 87% 30.01 in 10.0 mi SE 6.9 mph - N/A   Overcast
10:26 AM 48.9 °F - 45.0 °F 86% 30.00 in 6.0 mi SE 6.9 mph - 0.01 in Rain Light Rain
10:53 AM 48.2 °F - 46.4 °F 93% 29.99 in 10.0 mi SSE 8.1 mph - N/A   Overcast
11:53 AM 48.2 °F - 46.4 °F 93% 29.98 in 10.0 mi SSE 6.9 mph - N/A   Overcast
12:53 PM 48.2 °F - 46.4 °F 93% 29.97 in 10.0 mi SE 6.9 mph - N/A   Overcast
1:53 PM 48.2 °F - 46.4 °F 93% 29.95 in 6.0 mi SE 9.2 mph - N/A Rain Light Rain
2:53 PM 48.0 °F - 44.1 °F 86% 29.93 in 6.0 mi East 8.1 mph - 0.14 in Rain Rain
3:53 PM 48.0 °F - 45.0 °F 89% 29.91 in 5.0 mi SE 6.9 mph - 0.09 in Rain Rain
4:53 PM 46.9 °F - 45.0 °F 93% 29.89 in 6.0 mi SSE 5.8 mph - 0.06 in Rain Light Rain
5:53 PM 46.9 °F - 45.0 °F 93% 29.87 in 4.0 mi Calm Calm - 0.09 in Rain Rain
6:53 PM 46.9 °F - 45.0 °F 93% 29.85 in 5.0 mi Calm Calm - 0.18 in Rain Rain
7:53 PM 46.9 °F - 45.0 °F 93% 29.83 in 10.0 mi South 3.5 mph - 0.04 in Rain Light Rain
8:53 PM 46.9 °F - 45.0 °F 93% 29.82 in 8.0 mi South 3.5 mph - 0.06 in Rain Light Rain
9:53 PM 46.0 °F - 44.1 °F 93% 29.81 in 8.0 mi Calm Calm - 0.04 in Rain Light Rain
10:53 PM 46.0 °F - 44.1 °F 93% 29.82 in 10.0 mi Calm Calm - 0.02 in Rain Light Rain
11:53 PM 45.0 °F - 43.0 °F 93% 29.82 in 10.0 mi Calm Calm - 0.00 in   Overcast